Wind_Speed
9 8 7 6 6 7 4 2 1 1 3 4 4 6 8 10 11 12 12 11 11 11 12 11 12 12 11 11 11 11 10 10 10 10 9 9 8 8 7 7 7 7 6 6
8 7 7 6 6 6 5 4 2 1 2 3 4 5 7 8 9 9 10 10 10 11 10 10 10 11 11 10 10 10 10 9 9 9 9 9 8 8 7 7 7 6 6 6
11 9 9 8 8 8 6 5 5 4 1 1 3 5 6 7 8 8 8 9 9 9 9 10 10 10 10 10 9 9 9 9 9 9 9 9 9 8 8 8 7 7 7 6
14 13 12 10 8 7 7 7 7 5 3 2 4 6 8 7 7 7 8 8 8 9 9 9 9 9 9 9 9 8 8 8 8 9 9 9 9 9 9 8 8 8 8 7
15 15 13 12 11 10 9 9 8 7 4 3 5 7 8 8 7 8 8 8 7 8 8 8 9 9 8 9 8 8 8 8 8 9 9 9 9 9 9 8 8 8 8 8
16 15 14 14 14 13 11 8 6 6 5 6 6 6 8 8 8 8 6 7 7 7 7 8 8 8 8 9 9 9 8 8 8 8 9 9 9 9 9 9 9 8 8 9
17 16 15 15 14 13 12 10 8 7 7 7 7 8 10 9 9 9 7 7 8 7 7 8 8 7 7 8 9 9 9 8 8 8 8 9 9 10 9 10 9 9 9 9
16 16 16 16 16 15 14 12 9 8 7 8 9 10 12 11 9 10 9 8 8 8 8 8 8 8 8 8 8 9 9 8 8 8 8 9 10 10 10 10 10 10 10 10
18 17 17 18 17 16 14 13 10 10 9 9 10 10 13 14 12 10 10 10 10 9 10 10 9 8 8 8 8 9 9 8 8 8 9 9 10 10 11 11 11 11 11 11
21 21 19 18 18 17 16 15 13 13 13 11 12 12 13 15 14 13 11 10 10 9 10 10 10 10 10 9 9 9 9 9 9 9 9 9 10 11 11 12 12 12 12 12
22 21 20 19 20 17 17 17 17 16 15 13 13 14 14 14 14 15 13 12 12 11 11 11 11 11 11 10 11 10 10 10 10 10 10 11 11 12 11 12 13 13 13 13
24 23 22 20 20 20 19 19 18 18 17 16 14 15 16 15 15 15 15 14 14 13 13 13 12 12 12 12 11 12 11 12 12 12 12 12 12 12 13 13 13 13 13 13
25 25 24 22 20 21 21 21 21 19 19 19 16 16 17 15 15 17 17 17 16 15 14 14 14 13 14 14 13 13 13 13 13 14 13 13 13 13 13 13 13 13 13 14
29 29 28 26 23 22 21 21 21 21 21 20 18 18 21 19 18 20 19 18 17 15 15 15 15 15 15 15 15 15 15 15 14 15 14 14 14 14 14 14 14 14 14 14
33 32 30 28 26 25 24 24 23 23 23 22 19 21 23 22 21 22 21 20 19 17 17 17 16 17 16 16 16 16 16 15 16 16 16 15 15 15 15 15 14 15 15 16
34 33 32 30 28 27 28 26 25 25 25 23 22 23 24 25 23 21 22 21 21 21 20 20 19 19 19 18 17 17 17 17 17 17 16 16 16 16 16 16 16 17 17 17
35 35 34 32 30 30 30 27 25 25 26 25 24 25 24 25 25 26 26 25 24 23 23 23 22 21 21 20 19 18 18 18 18 18 17 17 18 18 18 18 18 19 19 19
34 35 35 34 31 33 30 27 27 27 27 27 26 27 29 29 28 30 29 27 26 26 25 26 25 23 23 22 21 21 20 20 20 20 19 19 19 20 20 20 21 21 21 21
35 35 35 34 33 32 30 29 29 30 30 29 29 29 30 30 30 29 29 29 28 28 28 28 27 26 25 24 24 23 22 22 22 22 22 22 22 22 22 22 23 23 23 23
35 36 35 35 34 32 30 30 30 30 32 31 30 31 31 31 32 32 31 31 30 30 30 29 29 28 27 27 26 26 25 25 24 24 25 25 24 25 25 25 25 25 25 25
35 35 36 36 35 33 30 30 30 32 33 32 33 33 34 34 35 35 32 33 33 32 32 31 31 30 29 29 29 28 28 27 27 28 28 28 27 27 28 28 28 28 28 28
32 34 35 36 35 33 32 31 33 34 34 34 34 34 35 35 36 35 34 34 35 34 34 33 32 32 31 32 32 31 30 30 30 30 30 30 30 30 30 30 30 30 30 30
31 31 31 34 36 36 35 35 36 36 36 35 35 36 35 34 35 36 36 35 36 36 35 35 34 34 33 33 33 33 32 32 33 33 33 32 32 32 33 33 32 32 32 32
32 33 35 35 36 38 38 38 38 37 37 37 37 36 36 36 36 37 36 36 36 38 38 37 36 36 35 34 35 35 34 34 35 35 34 34 34 35 35 35 34 34 34 34
33 34 36 37 38 38 38 38 37 38 38 38 38 38 37 37 37 38 38 38 38 39 39 39 38 37 37 37 36 36 35 36 36 36 36 36 36 36 36 36 35 36 36 36
34 34 37 37 36 38 38 39 40 39 38 38 38 38 38 38 39 39 39 38 39 40 40 40 40 39 38 38 38 38 37 37 37 37 37 37 37 37 37 37 36 37 36 36
Wind_Direction
160 164 172 163 152 133 140 149 192 19 73 71 29 23 21 16 19 24 27 30 31 33 37 38 40 42 44 46 48 49 49 48 47 45 44 45 46 43 41 39 35 31 28 29
182 187 179 179 172 164 172 202 227 255 43 58 35 18 13 3 9 16 22 26 27 31 34 37 38 41 41 43 43 44 43 43 41 38 37 37 36 34 31 29 28 25 23 22
199 192 195 195 198 186 193 222 233 237 227 1 359 360 2 356 356 3 12 16 19 23 27 32 34 36 36 37 38 37 37 37 36 35 33 31 30 28 26 24 23 23 19 15
210 202 203 205 211 201 210 220 232 241 251 306 328 319 329 331 340 342 353 4 10 15 19 24 28 30 31 33 33 33 30 29 28 27 27 27 25 23 23 21 20 18 16 14
214 208 209 214 214 216 220 223 223 230 222 251 288 294 310 320 321 326 335 351 360 5 9 15 20 24 27 27 28 29 25 24 24 23 24 23 23 20 18 16 13 9 6 5
214 216 217 218 216 216 217 225 229 239 234 246 261 275 294 306 305 303 314 335 342 352 357 360 7 15 19 19 22 23 18 16 19 22 22 21 19 16 12 10 7 4 2 360
215 220 221 220 219 220 218 223 234 247 253 258 266 260 278 289 295 299 301 314 321 331 341 346 348 358 6 11 14 13 12 9 12 15 14 12 11 9 6 4 2 0 359 355
221 226 225 225 223 227 225 221 217 230 244 261 261 259 270 275 281 292 298 304 306 316 324 330 336 335 343 351 359 3 5 2 1 3 3 1 0 0 357 355 354 355 352 349
217 226 230 231 228 225 228 228 225 240 240 256 263 269 273 285 285 284 290 295 302 306 312 320 326 321 322 332 341 346 349 350 349 349 351 354 355 354 351 348 349 348 346 345
219 223 225 229 234 232 225 224 227 233 239 239 253 270 277 283 285 287 287 286 288 294 299 310 319 317 311 316 329 334 334 333 333 337 341 343 343 342 342 344 343 342 344 343
222 226 226 228 232 233 229 225 225 227 230 237 250 257 267 270 276 284 286 281 282 285 290 298 307 311 309 309 316 321 321 324 325 325 326 333 336 338 334 335 335 334 334 335
222 224 224 231 234 232 232 228 226 233 235 231 245 263 270 272 275 279 281 282 282 280 283 288 295 301 303 308 308 310 311 314 315 316 316 319 321 326 330 331 333 332 334 334
224 228 228 228 235 235 235 233 232 232 239 241 248 264 270 267 267 271 274 275 277 275 276 279 285 292 299 303 304 302 303 305 307 309 310 312 313 316 320 323 326 331 332 333
226 228 227 223 224 232 238 236 233 233 236 240 244 254 265 269 268 270 269 268 273 272 272 274 278 284 289 292 298 301 300 301 303 304 307 308 309 311 314 317 319 324 326 325
229 230 231 229 224 226 234 238 239 238 237 239 242 249 260 266 264 268 268 265 265 266 269 271 276 281 284 287 290 294 295 295 297 300 300 302 306 310 311 313 316 318 318 318
231 231 231 233 232 231 232 235 240 243 242 240 242 246 252 261 261 264 266 266 266 268 269 270 274 278 281 285 288 289 290 291 292 295 296 298 300 303 307 311 313 315 313 313
234 234 233 232 234 238 237 236 236 240 243 241 245 249 250 255 257 261 266 267 266 267 267 272 274 276 277 280 284 285 286 286 288 291 292 294 296 299 303 307 310 311 309 309
236 236 236 236 235 239 240 240 239 239 242 242 241 246 249 252 257 258 260 263 264 265 265 267 271 273 274 276 279 280 282 283 284 286 288 290 293 295 297 301 304 305 305 306
237 237 236 236 239 243 242 241 240 239 240 241 244 246 249 252 256 258 259 262 264 266 267 267 269 270 270 272 275 277 278 280 281 282 286 287 289 291 293 296 299 301 302 303
237 237 237 236 236 240 243 245 244 244 245 244 246 248 249 250 255 257 259 263 265 266 266 266 267 268 267 269 272 274 276 278 279 281 282 284 286 288 291 293 295 298 298 299
239 238 238 236 237 239 241 243 244 243 244 246 248 249 251 252 253 256 260 263 266 266 267 267 266 266 267 268 270 273 275 277 279 279 281 283 285 287 289 290 292 294 295 296
245 241 239 237 236 237 240 243 244 245 248 248 248 251 253 254 256 257 258 260 263 265 266 266 265 265 266 267 269 272 274 276 277 279 281 282 283 284 286 288 290 292 293 293
238 238 238 238 237 237 237 240 243 246 247 250 251 253 254 255 258 259 259 259 261 262 264 265 264 263 265 266 268 270 272 274 276 278 279 279 280 282 283 284 286 288 290 290
233 234 234 235 237 238 241 243 245 247 248 250 252 254 255 257 258 259 261 261 262 263 264 264 264 263 264 266 268 270 271 273 275 277 278 278 279 280 282 282 283 285 287 288
232 235 236 238 240 241 242 246 247 249 251 252 254 255 256 258 260 261 263 263 263 262 262 262 262 263 264 265 267 269 270 272 274 275 277 277 278 279 281 280 282 283 284 285
235 237 237 240 243 243 243 246 248 248 250 252 255 256 257 258 260 262 263 265 264 263 264 263 261 262 265 267 267 268 270 272 273 274 275 277 278 279 280 279 281 283 284 284
Height
5914 5917 5918 5921 5923 5926 5928 5929 5928 5927 5926 5926 5926 5925 5923 5922 5921 5919 5918 5916 5915 5914 5912 5911 5910 5909 5907 5906 5905 5905 5904 5903 5902 5902 5901 5900 5899 5899 5898 5897 5896 5896 5895 5894
5916 5918 5920 5922 5924 5925 5928 5929 5929 5928 5928 5927 5926 5925 5924 5924 5923 5922 5920 5919 5917 5916 5915 5913 5912 5910 5910 5909 5908 5907 5906 5905 5904 5904 5903 5902 5901 5900 5899 5898 5897 5897 5896 5895
5915 5919 5920 5922 5924 5926 5928 5929 5929 5928 5928 5928 5927 5927 5926 5925 5924 5923 5922 5920 5919 5918 5917 5915 5914 5913 5912 5910 5909 5909 5908 5907 5906 5905 5904 5903 5902 5901 5900 5899 5898 5898 5897 5896
5914 5917 5919 5921 5924 5925 5927 5928 5928 5928 5927 5928 5929 5928 5927 5925 5924 5924 5923 5922 5920 5919 5918 5917 5916 5914 5913 5912 5911 5910 5909 5908 5907 5906 5905 5904 5903 5902 5901 5900 5899 5898 5897 5897
5912 5914 5917 5920 5923 5924 5926 5926 5926 5927 5928 5928 5929 5929 5928 5926 5924 5924 5923 5922 5921 5920 5919 5918 5917 5916 5914 5913 5912 5911 5910 5909 5908 5907 5906 5905 5904 5903 5902 5901 5900 5899 5898 5897
5910 5912 5915 5918 5920 5922 5923 5925 5925 5926 5927 5928 5929 5929 5928 5926 5925 5924 5923 5922 5922 5921 5920 5919 5918 5917 5916 5914 5913 5912 5911 5910 5909 5908 5907 5906 5905 5904 5903 5902 5901 5900 5898 5897
5907 5910 5913 5915 5918 5920 5922 5923 5925 5925 5926 5927 5929 5929 5928 5926 5925 5924 5922 5923 5922 5921 5921 5920 5918 5917 5916 5915 5914 5913 5912 5911 5910 5909 5908 5907 5906 5905 5904 5903 5901 5900 5899 5897
5905 5908 5910 5912 5915 5917 5919 5921 5923 5925 5926 5928 5928 5928 5927 5925 5925 5924 5923 5922 5922 5921 5920 5920 5919 5917 5916 5915 5914 5914 5913 5912 5911 5910 5909 5908 5907 5905 5904 5903 5901 5900 5899 5897
5903 5906 5908 5909 5912 5915 5917 5918 5921 5923 5924 5926 5925 5926 5925 5923 5923 5923 5923 5922 5921 5920 5919 5918 5918 5917 5916 5915 5915 5914 5913 5912 5911 5910 5909 5908 5907 5905 5904 5902 5901 5899 5898 5896
5898 5901 5903 5906 5909 5911 5914 5916 5919 5921 5921 5923 5925 5923 5923 5921 5922 5921 5921 5921 5920 5919 5918 5917 5917 5916 5915 5914 5914 5913 5912 5912 5911 5910 5909 5908 5906 5905 5903 5902 5900 5898 5897 5895
5893 5897 5900 5902 5904 5908 5910 5913 5915 5917 5919 5921 5922 5923 5920 5919 5919 5919 5919 5918 5918 5918 5917 5916 5916 5915 5914 5913 5913 5912 5911 5911 5910 5908 5908 5907 5905 5904 5902 5901 5899 5897 5896 5894
5888 5891 5894 5898 5901 5903 5906 5908 5911 5913 5914 5916 5917 5920 5916 5916 5916 5916 5916 5916 5916 5916 5915 5914 5914 5913 5913 5912 5911 5911 5910 5909 5908 5907 5906 5905 5904 5903 5901 5899 5897 5896 5894 5892
5883 5886 5889 5893 5898 5899 5901 5903 5906 5909 5911 5912 5914 5917 5912 5912 5912 5913 5913 5913 5913 5913 5913 5912 5912 5912 5911 5910 5909 5909 5908 5907 5906 5905 5904 5903 5902 5900 5899 5897 5896 5894 5892 5891
5876 5879 5884 5888 5891 5894 5896 5898 5901 5904 5905 5908 5910 5911 5909 5909 5907 5907 5909 5909 5910 5910 5910 5909 5909 5909 5908 5908 5907 5906 5906 5905 5904 5903 5902 5901 5900 5898 5897 5895 5894 5892 5890 5889
5869 5873 5876 5880 5884 5887 5890 5893 5896 5898 5900 5903 5905 5906 5905 5903 5903 5903 5904 5905 5905 5905 5906 5906 5906 5906 5905 5905 5904 5903 5903 5902 5901 5900 5899 5898 5897 5896 5894 5893 5891 5890 5888 5886
5861 5866 5869 5873 5876 5880 5883 5887 5890 5893 5895 5897 5899 5900 5899 5898 5897 5897 5898 5900 5900 5901 5901 5901 5902 5902 5902 5901 5901 5900 5899 5899 5898 5897 5896 5895 5894 5893 5891 5890 5888 5887 5885 5883
5854 5858 5862 5866 5871 5873 5875 5880 5883 5886 5889 5891 5893 5894 5893 5892 5892 5892 5893 5894 5895 5896 5896 5896 5897 5897 5897 5897 5897 5896 5895 5895 5894 5893 5892 5891 5890 5889 5888 5886 5884 5883 5881 5879
5847 5850 5854 5858 5863 5864 5871 5874 5876 5879 5882 5884 5885 5886 5886 5886 5886 5886 5887 5888 5889 5890 5891 5891 5892 5892 5892 5892 5891 5891 5890 5890 5889 5889 5888 5887 5886 5885 5883 5882 5880 5879 5877 5876
5839 5842 5846 5851 5854 5857 5863 5865 5868 5870 5872 5875 5877 5878 5878 5879 5879 5878 5879 5881 5882 5883 5885 5885 5885 5886 5887 5886 5886 5886 5885 5885 5884 5884 5883 5882 5881 5880 5878 5877 5875 5874 5872 5870
5830 5834 5839 5842 5846 5850 5856 5857 5859 5863 5863 5866 5868 5869 5870 5871 5871 5871 5872 5874 5875 5876 5877 5878 5878 5879 5879 5880 5880 5879 5879 5879 5879 5878 5877 5876 5875 5874 5873 5871 5870 5868 5866 5864
5822 5825 5829 5833 5837 5842 5846 5848 5851 5854 5855 5857 5858 5859 5861 5863 5863 5864 5865 5866 5867 5869 5869 5870 5871 5871 5872 5872 5872 5872 5872 5872 5872 5871 5870 5869 5869 5868 5866 5865 5863 5862 5860 5858
5814 5818 5821 5825 5829 5835 5837 5839 5841 5843 5845 5847 5849 5850 5851 5853 5854 5855 5857 5858 5859 5860 5861 5861 5862 5863 5864 5864 5864 5865 5865 5865 5864 5863 5863 5862 5861 5860 5859 5858 5856 5855 5853 5851
5807 5811 5814 5817 5821 5824 5826 5828 5830 5833 5836 5837 5839 5841 5841 5843 5845 5846 5848 5849 5850 5850 5851 5852 5853 5855 5855 5856 5856 5856 5856 5856 5855 5855 5854 5854 5853 5852 5851 5849 5848 5846 5845 5843
5797 5801 5804 5807 5809 5813 5816 5818 5821 5824 5826 5828 5830 5831 5833 5834 5835 5837 5838 5839 5840 5841 5842 5843 5844 5845 5846 5846 5847 5847 5847 5846 5846 5845 5845 5844 5844 5843 5842 5840 5839 5838 5836 5835
5788 5792 5795 5798 5801 5804 5807 5809 5812 5815 5817 5818 5820 5822 5823 5824 5825 5827 5828 5829 5830 5830 5831 5833 5834 5835 5835 5836 5836 5837 5837 5836 5836 5835 5835 5834 5833 5833 5832 5830 5829 5828 5827 5825
5781 5784 5786 5789 5791 5794 5797 5799 5802 5804 5806 5808 5810 5812 5813 5814 5815 5816 5817 5818 5818 5820 5820 5821 5822 5823 5824 5824 5825 5826 5826 5826 5825 5825 5825 5824 5823 5823 5821 5820 5820 5819 5817 5816